[[{"header":{"parameterUnit":"m.s-1","parameterCategory":1,"la1":30.2991,"la2":30.254,"lo1":-89.0895,"lo2":-89.0444,"dy":0.0017,"dx":0.0017,"nx":28,"ny":28,"refTime":"2025-08-03T21:00:00:Z","depth":0,"parameterNumber":2,"parameterNumberName":"U-component_of_WINDS"},"data":[0,0,0,0,0,0,0,0,0,0,0,0,0,0,0,0,0,0,0,0,0,0,0,0,0,0,0,0,0,0,0,0,0,0,0,0,0,0,0,0,0,0,0,0,0,0,0,0,0,0,0,0,0,0,0,0,0,0,-2.5113,-2.5114,0,-2.5143,-2.5144,-2.5144,-2.5134,-2.5133,-2.5132,-2.5132,-2.5159,-2.516,-2.5162,0,0,0,0,0,0,0,0,0,0,0,0,0,-2.5045,-2.5046,-2.5113,-2.5114,-2.5114,-2.5143,-2.5144,-2.5144,-2.5134,-2.5133,-2.5132,-2.5131,-2.5159,-2.516,-2.5162,0,0,0,0,0,0,0,0,0,0,0,0,0,-2.5074,-2.5046,-2.5113,-2.5113,-2.5113,-2.5143,-2.5144,-2.5144,-2.5134,-2.5133,-2.5132,-2.5131,-2.5158,-2.516,-2.5162,-2.5194,0,0,-2.5168,-2.5169,0,0,0,0,0,0,0,0,-2.5073,-2.5077,-2.5112,-2.5113,-2.5113,-2.5134,-2.5129,-2.5161,-2.5134,-2.5126,-2.5132,-2.513,-2.5151,-2.5154,-2.5161,-2.5195,-2.5196,-2.5168,-2.517,-2.517,-2.5171,0,0,0,0,0,0,0,-2.5071,-2.5076,-2.5125,-2.5113,-2.5113,-2.511,-2.5113,-2.5135,-2.5143,-2.5126,-2.5126,-2.513,-2.5151,-2.5159,-2.5162,-2.5197,-2.5168,-2.517,-2.5171,-2.5172,-2.5258,-2.5259,0,0,0,0,0,0,-2.5069,-2.5074,-2.5124,-2.5126,-2.509,-2.5112,-2.5115,-2.5128,-2.5143,-2.5145,-2.513,-2.5129,-2.5157,-2.516,-2.5163,-2.5201,-2.517,-2.5172,-2.5173,-2.5257,-2.5258,-2.5259,0,0,0,0,0,0,-2.5067,-2.5073,-2.5123,-2.51,-2.5106,-2.5114,-2.5128,-2.5129,-2.5137,-2.5146,-2.5147,-2.5137,-2.5156,-2.516,-2.5186,-2.5202,-2.5173,-2.5175,-2.5256,-2.5257,-2.5259,-2.5277,0,0,0,0,0,0,-2.5065,-2.5073,-2.5086,-2.51,-2.5107,-2.5147,-2.5129,-2.513,-2.5141,-2.514,-2.5153,-2.5155,-2.5155,-2.5184,-2.5188,-2.5204,-2.5177,-2.5254,-2.5256,-2.5258,-2.5275,-2.5279,-2.5283,0,0,0,0,0,-2.5063,-2.5089,-2.5087,-2.5093,-2.5124,-2.5148,-2.5152,-2.5153,-2.5143,-2.5155,-2.5161,-2.5154,-2.52,-2.5186,-2.5192,-2.5208,-2.5253,-2.5256,-2.5258,-2.5274,-2.5279,-2.5283,0,0,0,0,0,0,-2.5075,-2.5091,-2.5088,-2.512,-2.5133,-2.5146,-2.5162,-2.5158,-2.5173,-2.5171,-2.5171,-2.5174,-2.5202,-2.5208,-2.5193,-2.524,-2.5225,-2.5228,-2.5235,-2.5239,-2.5243,-2.524,-2.5178,0,0,0,0,0,-2.5082,-2.5101,-2.5114,-2.514,-2.5147,-2.5153,-2.5164,-2.5164,-2.5177,-2.5182,-2.519,-2.5201,-2.5218,-2.5229,-2.5245,-2.5277,-2.5279,-2.529,-2.5294,-2.5297,-2.53,-2.5316,-2.5321,-2.5267,-2.5267,-2.5267,0,0,-2.5095,-2.5106,-2.5118,-2.5143,-2.5153,-2.5172,-2.5158,-2.5179,-2.5193,-2.5185,-2.521,-2.5216,-2.5229,-2.5258,-2.5272,-2.5264,-2.5316,-2.53,-2.5303,-2.5304,-2.5319,-2.5325,-2.5329,-2.5269,-2.5269,-2.5268,0,0,-2.5129,-2.514,-2.5163,-2.5174,-2.5189,-2.5193,-2.5199,-2.5213,-2.5217,-2.5243,-2.5238,-2.5254,-2.5283,-2.5293,-2.5301,-2.5339,-2.5334,-2.5345,-2.5364,-2.538,-2.5384,-2.5388,-2.5401,-2.5405,-2.5348,-2.5348,-2.5348,0,-2.5143,-2.5172,-2.5175,-2.5197,-2.5207,-2.5203,-2.5226,-2.5236,-2.5255,-2.5262,-2.5254,-2.5291,-2.5299,-2.533,-2.534,-2.5347,-2.5353,-2.5343,-2.5383,-2.5387,-2.5391,-2.5403,-2.5408,-2.5349,-2.5349,-2.5349,-2.5349,0,-2.5189,-2.5209,-2.5226,-2.5247,-2.5259,-2.5282,-2.5287,-2.5299,-2.5299,-2.5303,-2.5329,-2.534,-2.5358,-2.5365,-2.5364,-2.5396,-2.5391,-2.5383,-2.5368,-2.5397,-2.5408,-2.5413,-2.5351,-2.535,-2.535,-2.535,0,0,-2.523,-2.5252,-2.5258,-2.5267,-2.5285,-2.53,-2.5322,-2.5341,-2.5351,-2.5365,-2.5382,-2.5408,-2.5401,-2.5411,-2.5411,-2.5425,-2.5454,-2.5416,-2.5416,-2.5422,-2.5489,-2.5494,-2.5499,-2.5451,-2.5452,-2.5452,-2.5488,0,-2.5265,-2.5304,-2.5307,-2.5342,-2.5361,-2.5357,-2.5376,-2.5388,-2.5393,-2.5409,-2.5414,-2.5432,-2.5422,-2.5428,-2.5442,-2.5448,-2.5467,-2.5445,-2.5466,-2.5467,-2.5462,-2.5506,-2.5511,-2.5544,-2.5492,-2.5493,-2.5493,0,-2.531,-2.5327,-2.5364,-2.5379,-2.5386,-2.5404,-2.5421,-2.5437,-2.545,-2.5453,-2.5464,-2.5463,-2.5484,-2.5469,-2.5498,-2.5483,-2.5492,-2.5496,-2.5497,-2.5498,-2.5481,-2.5507,-2.5554,-2.5559,-2.5501,-2.55,-2.55,0,-2.5336,-2.5367,-2.5393,-2.5401,-2.5419,-2.5431,-2.5439,-2.5452,-2.5463,-2.5478,-2.5485,-2.5502,-2.5511,-2.5524,-2.5526,-2.5515,-2.5555,-2.554,-2.5557,-2.5557,-2.5565,-2.5564,-2.5613,-2.5572,-2.5572,-2.5572,-2.5572,0,-2.5373,-2.5396,-2.5405,-2.5421,-2.5446,-2.545,-2.5474,-2.5481,-2.5492,-2.5509,-2.5506,-2.5522,-2.5525,-2.5541,-2.5543,-2.5566,-2.557,-2.5573,-2.5573,-2.5572,-2.5572,-2.5577,-2.5575,-2.5573,-2.5573,-2.5573,-2.5573,0,-2.5406,-2.5413,-2.5441,-2.5456,-2.5461,-2.5478,-2.5491,-2.5506,-2.5511,-2.5532,-2.5537,-2.5545,-2.5564,-2.5568,-2.559,-2.5591,-2.5619,-2.5617,-2.5614,-2.5614,-2.563,-2.5628,-2.5683,-2.569,-2.5646,-2.5646,-2.5647,0,-2.5429,-2.5447,-2.5464,-2.5476,-2.5484,-2.5503,-2.5514,-2.5518,-2.553,-2.5547,-2.556,-2.5579,-2.5594,-2.5623,-2.563,-2.5647,-2.5645,-2.5663,-2.5647,-2.5646,-2.5644,-2.5643,-2.5644,-2.5666,-2.5666,-2.5667,-2.5667,0,-2.5469,-2.5472,-2.549,-2.5508,-2.5523,-2.5537,-2.5551,-2.556,-2.5566,-2.558,-2.5599,-2.5611,-2.5634,-2.5652,-2.5669,-2.5676,-2.5672,-2.5672,-2.5677,-2.5676,-2.5673,-2.5674,-2.5622,-2.5671,-2.567,-2.567,-2.567,-2.567,-2.5497,-2.5513,-2.5528,-2.5547,-2.5558,-2.5571,-2.5586,-2.5594,-2.5611,-2.563,-2.5631,-2.5652,-2.5665,-2.5687,-2.5696,-2.5711,-2.5706,-2.5712,-2.5714,-2.5715,-2.5716,-2.5672,-2.5715,-2.5714,-2.5714,-2.5714,-2.5714,0,-2.5537,-2.5546,-2.5564,-2.5585,-2.56,-2.5597,-2.5612,-2.5624,-2.5643,-2.5656,-2.5671,-2.5693,-2.5711,-2.572,-2.5737,-2.5748,-2.5747,-2.5752,-2.5751,-2.5753,-2.5721,-2.5715,-2.5753,-2.5753,-2.5753,-2.5753,-2.5753,-2.5753,-2.5559,-2.5585,-2.5589,-2.562,-2.563,-2.5651,-2.566,-2.5672,-2.5682,-2.5707,-2.5722,-2.5729,-2.574,-2.5758,-2.5774,-2.5776,-2.5782,-2.5788,-2.5789,-2.5759,-2.5755,-2.5751,-2.5745,-2.5789,-2.5789,-2.5819,-2.5819,-2.582]},{"header":{"parameterUnit":"m.s-1","parameterCategory":1,"la1":30.2991,"la2":30.254,"lo1":-89.0895,"lo2":-89.0444,"dy":0.0017,"dx":0.0017,"nx":28,"ny":28,"refTime":"2025-08-03T21:00:00:Z","depth":0,"parameterNumber":3,"parameterNumberName":"V-component_of_WINDS"},"data":[0,0,0,0,0,0,0,0,0,0,0,0,0,0,0,0,0,0,0,0,0,0,0,0,0,0,0,0,0,0,0,0,0,0,0,0,0,0,0,0,0,0,0,0,0,0,0,0,0,0,0,0,0,0,0,0,0,0,2.8186,2.8185,0,2.8099,2.8098,2.8097,2.8052,2.8052,2.8052,2.8052,2.7956,2.7954,2.7951,0,0,0,0,0,0,0,0,0,0,0,0,0,2.8306,2.8305,2.8186,2.8185,2.8184,2.8099,2.8098,2.8097,2.8052,2.8052,2.8052,2.8052,2.7957,2.7954,2.7951,0,0,0,0,0,0,0,0,0,0,0,0,0,2.824,2.8304,2.8186,2.8152,2.8148,2.8099,2.8098,2.8096,2.8052,2.8052,2.8052,2.8052,2.7958,2.7954,2.7951,2.7928,0,0,2.7939,2.7937,0,0,0,0,0,0,0,0,2.8244,2.8236,2.8158,2.8154,2.8149,2.8087,2.8105,2.804,2.8052,2.8088,2.8052,2.8052,2.7999,2.7992,2.7976,2.7923,2.7919,2.7939,2.7936,2.7935,2.7934,0,0,0,0,0,0,0,2.8249,2.8239,2.8151,2.8157,2.8151,2.8138,2.8129,2.8093,2.8045,2.8085,2.8082,2.8073,2.7997,2.7979,2.7973,2.7918,2.7939,2.7935,2.7933,2.7932,2.7842,2.7842,0,0,0,0,0,0,2.826,2.8243,2.8154,2.8149,2.8198,2.8136,2.8126,2.8107,2.8045,2.8036,2.8073,2.8071,2.7986,2.7978,2.7969,2.7938,2.7935,2.7931,2.7929,2.7842,2.7842,2.7841,0,0,0,0,0,0,2.8263,2.8252,2.8157,2.8195,2.8182,2.8134,2.8113,2.8105,2.8088,2.8036,2.8026,2.8064,2.7986,2.7975,2.7939,2.7934,2.793,2.7926,2.7842,2.7842,2.7842,2.7876,0,0,0,0,0,0,2.8266,2.8254,2.8246,2.8195,2.818,2.8131,2.8113,2.8103,2.8082,2.8079,2.8025,2.8016,2.7985,2.7945,2.7935,2.7929,2.7923,2.7842,2.7842,2.7842,2.7875,2.7877,2.7879,0,0,0,0,0,2.8271,2.8258,2.8246,2.8235,2.817,2.8131,2.8122,2.8088,2.8082,2.8073,2.8039,2.8018,2.7937,2.7942,2.793,2.7923,2.7842,2.7842,2.7842,2.7875,2.7877,2.7879,0,0,0,0,0,0,2.8307,2.8251,2.8237,2.8208,2.8175,2.8123,2.8111,2.8092,2.8058,2.8056,2.8013,2.8001,2.7969,2.7942,2.7949,2.7897,2.7887,2.7885,2.7916,2.7918,2.792,2.7926,2.792,0,0,0,0,0,2.8312,2.8287,2.8238,2.8217,2.8201,2.8159,2.814,2.8117,2.808,2.8065,2.8029,2.7992,2.7958,2.7937,2.7902,2.7872,2.7858,2.7861,2.7863,2.7864,2.7862,2.7843,2.7843,2.7841,2.7841,2.7841,0,0,2.8321,2.8287,2.8273,2.8223,2.8195,2.8167,2.8147,2.8119,2.8098,2.806,2.8025,2.7997,2.7953,2.7919,2.7902,2.7896,2.786,2.7864,2.7866,2.7863,2.7843,2.7843,2.7843,2.784,2.7841,2.7841,0,0,2.8324,2.8296,2.8276,2.8248,2.8206,2.8179,2.8174,2.8125,2.8106,2.8071,2.8042,2.8014,2.7957,2.7927,2.7904,2.7895,2.7874,2.7885,2.7895,2.7876,2.7876,2.7876,2.7873,2.7872,2.7883,2.7883,2.7884,0,2.834,2.83,2.8267,2.8241,2.8219,2.8186,2.8164,2.8138,2.8086,2.807,2.8065,2.7992,2.796,2.7918,2.7917,2.7899,2.7891,2.7891,2.788,2.7879,2.7879,2.7874,2.7873,2.7885,2.7885,2.7885,2.7885,0,2.8321,2.8294,2.8282,2.8235,2.8212,2.8188,2.8149,2.8129,2.8108,2.808,2.8043,2.8004,2.7961,2.7949,2.7928,2.7904,2.7902,2.7888,2.7877,2.7881,2.7876,2.7875,2.7887,2.7887,2.7886,2.7886,0,0,2.8344,2.828,2.8276,2.8255,2.8206,2.8183,2.8157,2.8118,2.8101,2.8066,2.8041,2.7994,2.7981,2.7955,2.793,2.7914,2.7909,2.7902,2.79,2.7904,2.788,2.789,2.7889,2.7895,2.7894,2.7894,2.7883,0,2.8339,2.8293,2.8263,2.8228,2.8201,2.817,2.8146,2.8113,2.8086,2.8058,2.8027,2.7994,2.798,2.7964,2.7947,2.7913,2.7903,2.7914,2.7869,2.7868,2.7881,2.7886,2.7897,2.7889,2.7881,2.7881,2.7881,0,2.8328,2.8297,2.826,2.8215,2.8202,2.8182,2.8143,2.8117,2.8078,2.8059,2.8031,2.8005,2.7974,2.7966,2.7921,2.7929,2.7909,2.7889,2.7888,2.7882,2.7874,2.7879,2.7885,2.7884,2.7877,2.7878,2.7878,0,2.8347,2.8296,2.8267,2.8249,2.8196,2.8183,2.8159,2.812,2.8098,2.8063,2.8049,2.801,2.7988,2.7958,2.7921,2.7919,2.788,2.7869,2.7862,2.7862,2.7854,2.7855,2.7856,2.7842,2.7842,2.7842,2.7843,0,2.8345,2.8323,2.8275,2.8257,2.8232,2.8196,2.8171,2.8144,2.811,2.8085,2.8054,2.8031,2.7985,2.7955,2.7926,2.7892,2.7883,2.7865,2.7858,2.7868,2.787,2.7854,2.7853,2.7842,2.7842,2.7842,2.7842,0,2.8362,2.8329,2.8296,2.8249,2.8236,2.8219,2.8177,2.8158,2.813,2.8098,2.8089,2.8044,2.8007,2.7968,2.7918,2.7898,2.7866,2.7855,2.788,2.7875,2.787,2.7871,2.786,2.7856,2.7846,2.7847,2.7847,0,2.8363,2.8346,2.8297,2.828,2.8258,2.8229,2.8208,2.8171,2.8149,2.8104,2.8089,2.8051,2.8018,2.7961,2.7922,2.7883,2.7871,2.787,2.7864,2.7875,2.787,2.7871,2.7869,2.7871,2.7871,2.7872,2.7872,0,2.8367,2.8352,2.8323,2.8288,2.8264,2.8234,2.8203,2.8189,2.8146,2.8123,2.8087,2.8062,2.8011,2.7973,2.7929,2.7902,2.7879,2.7874,2.787,2.788,2.7894,2.7886,2.7884,2.7874,2.7874,2.7874,2.7874,2.7874,2.8375,2.8358,2.8322,2.8291,2.8264,2.8236,2.8215,2.8186,2.8156,2.8113,2.8093,2.8056,2.8016,2.7956,2.793,2.7899,2.7892,2.7886,2.7885,2.7884,2.7886,2.7901,2.789,2.789,2.789,2.789,2.789,0,2.8377,2.8353,2.8324,2.8283,2.8258,2.8242,2.8206,2.8185,2.8155,2.812,2.809,2.8047,2.801,2.7969,2.7929,2.7912,2.79,2.7902,2.7902,2.7896,2.7895,2.7902,2.7912,2.7912,2.7912,2.7912,2.7912,2.7912,2.8375,2.8346,2.8327,2.8284,2.8258,2.8224,2.8205,2.8178,2.8151,2.8106,2.8076,2.8051,2.8013,2.797,2.7934,2.7923,2.7909,2.7914,2.7899,2.7898,2.7897,2.7895,2.7901,2.7911,2.7911,2.7903,2.7903,2.7903]}]]